Location: Cazavet
(43.0017°N, 1.0431°E)
Time: 09:46:51
(UTC+00:00)

Gbstr 26 Del rocket - Pass Details

Date: 18 January 2026
Orbit: 490 x 1217 km, 51.8° (Epoch: 10 February)

Event Time Altitude Azimuth Distance (km) Brightness Sun altitude
Exits shadow 04:33:37 72° 211° (SSW) 1,190 4.2 -30.6°
Maximum altitude 04:34:25 83° 144° (SE) 1,140 4.2 -30.4°
Drops below altitude 10° 04:41:18 10° 58° (ENE) 2,792 7.0 -29.2°
Sets 04:43:44 0° 58° (ENE) 3,645 7.8 -28.7°
